De Queen, AR

1:23 AM CDT on April 24, 2017 (GMT -0500)
Helms Sevier County

Weather History for KDEQ - October, 2014

Change the Weather History Date:

Monday, October 27, 2014

  Actual Average Record
Temperature  
Mean Temperature 66 °F 60 °F  
Max Temperature 81 °F 73 °F 93 °F (1939)
Min Temperature 51 °F 47 °F 26 °F (1957)
Degree Days  
Heating Degree Days 0 6  
Month to date heating degree days 51 97  
Since 1 July heating degree days 52 106  
Cooling Degree Days 1 1  
Month to date cooling degree days 78 67  
Year to date cooling degree days 1710 1932  
Growing Degree Days 16 (Base 50)    
Moisture  
Dew Point 56 °F    
Average Humidity 76    
Maximum Humidity 100    
Minimum Humidity 51    
Precipitation  
Precipitation 0.00 in 0.14 in 1.40 in (1951)
Month to date precipitation 5.08 4.01  
Year to date precipitation 38.52 39.21  
Snow  
Snow 0.00 in - - ()
Month to date snowfall 0.0  
Since 1 July snowfall 0.0  
Since 1 September snowfall 0.0  
Snow Depth 0.00 in    
Sea Level Pressure  
Sea Level Pressure 29.87 in    
Wind  
Wind Speed 5 mph (ESE)    
Max Wind Speed 17 mph    
Max Gust Speed 25 mph    
Visibility 4 miles    
Events Fog    
T = Trace of Precipitation, MM = Missing Value Source: NWS Daily Summary

Daily Weather History Graph

Daily Weather History Graph

Search for Another Location

Airport or City:

Trip Planner

Search our weather history database for the weather conditions in past years. The results will help you decide how hot, cold, wet, or windy it might be!

Date:

Astronomy

Oct. 27, 2014 Rise Set
Actual Time 7:32 AM CDT 6:29 PM CDT
Civil Twilight 7:07 AM CDT 6:55 PM CDT
Nautical Twilight 6:37 AM CDT 7:24 PM CDT
Astronomical Twilight 6:08 AM CDT 7:53 PM CDT
Moon 11:03 AM CDT (10/27) 9:41 PM CDT (10/27)
Length of Visible Light 11h 48m
Length of Day
10h 56m
Waxing Crescent, 15% of the Moon is Illuminated
Oct 27
Waxing Crescent
Oct 30
First Quarter
Nov 6
Full
Nov 14
Last Quarter
Nov 22
New

Hourly Weather History & Observations

Time (CDT) Temp. Heat Index Dew Point Humidity Pressure Visibility Wind Dir Wind Speed Gust Speed Precip Events Conditions
12:53 AM 61.0 °F - 57.0 °F 87% 29.87 in 10.0 mi Calm Calm - N/A   Clear
1:53 AM 57.9 °F - 55.9 °F 93% 29.87 in 8.0 mi Calm Calm - N/A   Clear
2:28 AM 55.9 °F - 55.0 °F 97% 29.88 in 1.5 mi NNE 3.5 mph - N/A   Clear
2:51 AM 55.4 °F - 53.6 °F 94% 29.88 in 0.8 mi Calm Calm - N/A   Mist
2:53 AM 55.0 °F - 54.0 °F 96% 29.86 in 0.8 mi Calm Calm - N/A   Mist
3:00 AM 55.0 °F - 55.0 °F 100% 29.88 in 1.0 mi Calm Calm - N/A   Clear
3:23 AM 55.9 °F - 55.0 °F 97% 29.87 in 3.0 mi NE 3.5 mph - N/A   Clear
3:25 AM 55.0 °F - 55.0 °F 100% 29.87 in 1.8 mi NE 3.5 mph - N/A   Clear
3:53 AM 54.0 °F - 54.0 °F 100% 29.86 in 2.5 mi Calm Calm - N/A   Clear
4:07 AM 54.0 °F - 54.0 °F 100% 29.87 in 1.0 mi Calm Calm - N/A   Clear
4:36 AM 54.0 °F - 53.1 °F 97% 29.88 in 0.8 mi Calm Calm - N/A   Mist
4:48 AM 53.6 °F - 51.8 °F 94% 29.88 in 1.5 mi East 3.5 mph - N/A   Partly Cloudy
4:50 AM 53.6 °F - 51.8 °F 94% 29.88 in 3.0 mi East 3.5 mph - N/A   Partly Cloudy
4:53 AM 54.0 °F - 53.1 °F 97% 29.86 in 4.0 mi East 3.5 mph - N/A   Partly Cloudy
5:06 AM 52.0 °F - 52.0 °F 100% 29.88 in 1.5 mi NE 3.5 mph - N/A   Partly Cloudy
5:15 AM 53.1 °F - 53.1 °F 100% 29.88 in 0.5 mi East 3.5 mph - N/A Fog Fog
5:33 AM 53.1 °F - 52.0 °F 96% 29.88 in 0.2 mi Calm Calm - N/A Fog Fog
5:38 AM 52.0 °F - 52.0 °F 100% 29.89 in 0.5 mi ENE 3.5 mph - N/A Fog Fog
5:53 AM 53.1 °F - 52.0 °F 96% 29.88 in 0.5 mi ESE 3.5 mph - N/A Fog Fog
6:00 AM 52.0 °F - 52.0 °F 100% 29.89 in 2.5 mi Calm Calm - N/A   Clear
6:07 AM 52.0 °F - 52.0 °F 100% 29.89 in 1.0 mi Calm Calm - N/A   Mist
6:12 AM 52.0 °F - 52.0 °F 100% 29.89 in 0.8 mi East 3.5 mph - N/A   Clear
6:29 AM 51.1 °F - 51.1 °F 100% 29.89 in 0.2 mi Calm Calm - N/A Fog Fog
6:41 AM 52.0 °F - 51.1 °F 97% 29.89 in 0.5 mi East 3.5 mph - N/A Fog Fog
6:50 AM 51.8 °F - 51.8 °F 100% 29.89 in 0.5 mi East 3.5 mph - N/A Fog Fog
6:53 AM 52.0 °F - 51.1 °F 97% 29.88 in 0.2 mi East 3.5 mph - N/A Fog Fog
7:00 AM 52.0 °F - 52.0 °F 100% 29.89 in 0.2 mi East 3.5 mph - N/A Fog Fog
7:10 AM 52.0 °F - 52.0 °F 100% 29.89 in 1.0 mi Calm Calm - N/A   Clear
7:14 AM 52.0 °F - 52.0 °F 100% 29.89 in 0.8 mi NE 3.5 mph - N/A   Mist
7:26 AM 52.0 °F - 52.0 °F 100% 29.89 in 0.2 mi Calm Calm - N/A Fog Fog
7:53 AM 52.0 °F - 52.0 °F 100% 29.89 in 0.2 mi East 3.5 mph - N/A Fog Fog
8:13 AM 53.1 °F - 53.1 °F 100% 29.90 in 0.5 mi East 3.5 mph - N/A Fog Fog
8:24 AM 55.0 °F - 55.0 °F 100% 29.90 in 2.0 mi ENE 3.5 mph - N/A   Clear
8:46 AM 57.9 °F - 57.0 °F 97% 29.91 in 4.0 mi NE 4.6 mph - N/A   Clear
8:53 AM 59.0 °F - 57.9 °F 96% 29.90 in 5.0 mi East 3.5 mph - N/A   Clear
9:53 AM 66.0 °F - 62.1 °F 87% 29.91 in 10.0 mi SW 4.6 mph - N/A   Partly Cloudy
10:08 AM 68.0 °F - 63.0 °F 84% 29.92 in 10.0 mi SSW 5.8 mph - N/A   Mostly Cloudy
10:53 AM 72.0 °F - 64.0 °F 76% 29.90 in 10.0 mi SW 9.2 mph - N/A   Mostly Cloudy
11:30 AM 75.0 °F - 64.0 °F 69% 29.90 in 10.0 mi SW 15.0 mph 18.4 mph N/A   Scattered Clouds
11:53 AM 75.0 °F - 63.0 °F 66% 29.88 in 10.0 mi SW 10.4 mph - N/A   Partly Cloudy
12:53 PM 78.1 °F - 62.1 °F 58% 29.86 in 10.0 mi SW 15.0 mph 25.3 mph N/A   Clear
1:53 PM 80.1 °F 81.2 °F 62.1 °F 54% 29.83 in 10.0 mi SSW 11.5 mph 21.9 mph N/A   Partly Cloudy
2:53 PM 80.1 °F 81.1 °F 61.0 °F 52% 29.82 in 10.0 mi SSW 12.7 mph 20.7 mph N/A   Scattered Clouds
3:53 PM 81.0 °F 81.6 °F 60.1 °F 49% 29.80 in 10.0 mi SSW 13.8 mph 20.7 mph N/A   Clear
4:53 PM 80.1 °F 80.9 °F 60.1 °F 50% 29.80 in 10.0 mi SSW 9.2 mph - N/A   Clear
5:53 PM 77.0 °F - 60.1 °F 56% 29.81 in 10.0 mi South 5.8 mph - N/A   Clear
6:53 PM 73.9 °F - 60.1 °F 62% 29.82 in 10.0 mi South 4.6 mph - N/A   Clear
7:53 PM 72.0 °F - 59.0 °F 64% 29.84 in 10.0 mi South 4.6 mph - N/A   Clear
8:53 PM 63.0 °F - 60.1 °F 90% 29.85 in 10.0 mi East 3.5 mph - N/A   Clear
9:53 PM 62.1 °F - 60.1 °F 93% 29.87 in 10.0 mi Calm Calm - N/A   Clear
10:53 PM 60.1 °F - 59.0 °F 96% 29.87 in 10.0 mi Calm Calm - N/A   Clear
11:53 PM 60.1 °F - 59.0 °F 96% 29.87 in 9.0 mi Calm Calm - N/A   Clear